contact:dominique.lefevre@mio.osupytheas.fr, maurice.libes@osupytheas.fr, didier.mallarino@osupytheas.fr
Project:EMSO http://www.emso-fr.org/EMSO-France
Depth: 2436.0 m
Title:EMSO Ligure Ouest : Data MII capteur AQUADOPP
Date,Latitude,Longitude,X_East,Y_North,Z_Up,Amplitude_X,Amplitude_Y,Amplitude_Z,Batterie,SoundSpeed,Heading,Pitch,Roll,Pressure,TIS,Speed,Direction
, degrees North, degrees East, m.s-1, m.s-1,m.s-1, 1, 1, 1, Volt, m.s-1, degree, degree, degree, dbar, degree_C, m.s-1, degree
2023-06-24T00:04:03,42.805,6.029,-0.006,0.002,-0.023,101.0,102.0,101.0,13.4,1505.2,329.8,-0.8,1.8,2471.564,13.29,0.006,288.4
2023-06-24T00:07:03,42.805,6.029,-0.026,0.032,-0.012,102.0,102.0,101.0,13.4,1505.2,336.1,-0.8,1.8,2471.554,13.29,0.041,320.9
2023-06-24T00:10:03,42.805,6.029,-0.013,0.014,-0.017,102.0,100.0,100.0,13.4,1505.2,337.7,-0.8,1.8,2471.565,13.29,0.019,317.1
2023-06-24T00:13:03,42.805,6.029,0.008,0.018,0.026,102.0,100.0,101.0,13.4,1505.2,340.8,-0.8,1.8,2471.538,13.29,0.019,24.0
2023-06-24T00:16:03,42.805,6.029,-0.002,0.015,0.024,103.0,101.0,100.0,13.4,1505.2,331.2,-0.7,1.8,2471.518,13.29,0.015,352.4
2023-06-24T00:19:03,42.805,6.029,-0.036,0.014,0.015,102.0,100.0,102.0,13.3,1505.2,330.3,-0.7,1.8,2471.491,13.29,0.038,291.2
2023-06-24T00:22:03,42.805,6.029,-0.006,0.005,-0.039,103.0,103.0,101.0,13.4,1505.2,350.1,-0.7,1.8,2471.545,13.29,0.007,309.8
2023-06-24T00:25:03,42.805,6.029,-0.011,0.002,-0.022,103.0,101.0,100.0,13.3,1505.2,333.4,-0.8,1.8,2471.473,13.29,0.011,280.3
2023-06-24T00:28:03,42.805,6.029,0.002,0.034,-0.017,103.0,103.0,101.0,13.4,1505.2,348.4,-0.7,1.8,2471.554,13.29,0.034,3.4
2023-06-24T00:31:03,42.805,6.029,0.0,0.016,-0.018,103.0,101.0,101.0,13.3,1505.2,343.4,-0.8,1.8,2471.514,13.29,0.016,0.0
2023-06-24T00:34:03,42.805,6.029,-0.002,-0.007,-0.029,103.0,101.0,101.0,13.3,1505.2,330.2,-0.8,1.8,2471.522,13.29,0.007,195.9
2023-06-24T00:37:03,42.805,6.029,-0.009,0.0,-0.016,99.0,103.0,102.0,13.4,1505.2,331.1,-0.7,1.9,2471.531,13.29,0.009,270.0
2023-06-24T00:40:03,42.805,6.029,-0.001,0.023,0.019,103.0,101.0,101.0,13.4,1505.2,343.8,-0.8,1.8,2471.472,13.29,0.023,357.5
2023-06-24T00:43:03,42.805,6.029,-0.013,-0.003,-0.02,102.0,101.0,101.0,13.3,1505.2,333.0,-0.7,1.8,2471.5,13.29,0.013,257.0
2023-06-24T00:46:03,42.805,6.029,-0.002,-0.004,-0.027,101.0,101.0,101.0,13.4,1505.2,331.6,-0.8,1.8,2471.485,13.29,0.004,206.6
2023-06-24T00:49:03,42.805,6.029,-0.002,0.023,-0.026,102.0,101.0,101.0,13.4,1505.2,348.4,-0.8,1.8,2471.483,13.29,0.023,355.0
2023-06-24T00:52:03,42.805,6.029,-0.008,0.006,-0.015,103.0,101.0,101.0,13.4,1505.2,321.6,-0.8,1.8,2471.496,13.29,0.01,306.9
2023-06-24T00:55:03,42.805,6.029,-0.028,0.018,-0.017,103.0,101.0,101.0,13.4,1505.2,337.2,-0.7,1.8,2471.472,13.29,0.033,302.7
2023-06-24T00:58:03,42.805,6.029,-0.018,0.018,-0.014,102.0,101.0,101.0,13.4,1505.2,327.0,-0.8,1.8,2471.455,13.29,0.025,315.0
2023-06-24T01:04:03,42.805,6.029,-0.018,0.02,0.008,102.0,102.0,101.0,13.4,1505.2,332.1,-0.7,1.8,2471.535,13.29,0.026,318.0
2023-06-24T01:07:03,42.805,6.029,-0.007,0.007,-0.024,102.0,102.0,99.0,13.3,1505.2,338.8,-0.7,1.8,2471.543,13.29,0.009,315.0
2023-06-24T01:10:03,42.805,6.029,0.004,0.023,0.04,102.0,101.0,100.0,13.4,1505.2,319.9,-0.8,1.8,2471.509,13.29,0.023,9.9
2023-06-24T01:13:03,42.805,6.029,-0.012,-0.004,-0.024,101.0,102.0,100.0,13.3,1505.2,333.4,-0.8,1.9,2471.536,13.29,0.012,251.6
2023-06-24T01:16:03,42.805,6.029,-0.015,0.011,-0.026,102.0,102.0,101.0,13.4,1505.2,347.8,-0.8,1.8,2471.504,13.29,0.018,306.3
2023-06-24T01:19:03,42.805,6.029,-0.008,0.0,-0.017,100.0,102.0,101.0,13.4,1505.2,333.4,-0.7,1.8,2471.481,13.29,0.008,270.0
2023-06-24T01:22:03,42.805,6.029,-0.005,0.001,-0.038,102.0,101.0,101.0,13.4,1505.2,331.3,-0.8,1.8,2471.49,13.29,0.005,281.3
2023-06-24T01:25:03,42.805,6.029,-0.023,0.023,-0.026,101.0,101.0,100.0,13.4,1505.2,326.5,-0.8,1.8,2471.474,13.29,0.032,315.0
2023-06-24T01:28:03,42.805,6.029,0.0,0.005,-0.019,102.0,101.0,101.0,13.4,1505.2,330.1,-0.8,1.8,2471.494,13.29,0.005,0.0
2023-06-24T01:31:03,42.805,6.029,-0.007,0.018,-0.015,101.0,101.0,101.0,13.4,1505.2,339.0,-0.7,1.8,2471.459,13.29,0.019,338.8
2023-06-24T01:34:03,42.805,6.029,0.006,0.003,-0.019,101.0,103.0,101.0,13.3,1505.2,338.8,-0.8,1.8,2471.477,13.29,0.006,63.4
2023-06-24T01:37:03,42.805,6.029,0.011,0.018,-0.003,101.0,100.0,101.0,13.4,1505.2,328.0,-0.7,1.8,2471.489,13.3,0.021,31.4
2023-06-24T01:40:03,42.805,6.029,-0.009,0.042,0.025,101.0,101.0,101.0,13.3,1505.2,330.8,-0.8,1.8,2471.465,13.29,0.042,347.9
2023-06-24T01:43:03,42.805,6.029,-0.011,0.025,0.015,102.0,101.0,100.0,13.4,1505.2,329.0,-0.8,1.8,2471.489,13.3,0.027,336.3
2023-06-24T01:46:03,42.805,6.029,-0.019,0.0,-0.061,101.0,103.0,101.0,13.3,1505.2,332.9,-0.8,1.8,2471.468,13.3,0.019,270.0
2023-06-24T01:49:03,42.805,6.029,-0.006,0.008,0.008,104.0,100.0,102.0,13.4,1505.2,330.9,-0.7,1.8,2471.452,13.3,0.01,323.1
2023-06-24T01:52:03,42.805,6.029,0.007,-0.003,0.018,101.0,102.0,100.0,13.4,1505.2,341.9,-0.8,1.8,2471.49,13.3,0.007,113.2
2023-06-24T01:55:03,42.805,6.029,0.004,0.011,-0.013,105.0,100.0,101.0,13.4,1505.2,337.8,-0.8,1.8,2471.471,13.3,0.011,20.0
2023-06-24T01:58:03,42.805,6.029,0.015,-0.022,-0.041,101.0,100.0,101.0,13.4,1505.2,327.1,-0.8,1.8,2471.468,13.3,0.026,145.7
2023-06-24T02:04:03,42.805,6.029,-0.013,0.002,-0.032,101.0,102.0,101.0,13.4,1505.2,341.9,-0.7,1.8,2471.447,13.29,0.013,278.7
2023-06-24T02:07:03,42.805,6.029,0.0,0.007,-0.029,102.0,102.0,101.0,13.4,1505.2,340.1,-0.8,1.8,2471.485,13.29,0.007,0.0
2023-06-24T02:10:03,42.805,6.029,-0.021,0.034,0.023,101.0,102.0,99.0,13.4,1505.2,332.1,-0.8,1.8,2471.517,13.29,0.039,328.3
2023-06-24T02:13:03,42.805,6.029,0.012,0.007,-0.003,101.0,103.0,101.0,13.3,1505.2,322.7,-0.7,1.8,2471.471,13.29,0.013,59.7
2023-06-24T02:16:03,42.805,6.029,-0.005,0.012,-0.021,103.0,101.0,100.0,13.4,1505.2,329.8,-0.7,1.8,2471.47,13.29,0.013,337.4
2023-06-24T02:19:03,42.805,6.029,0.011,0.002,-0.031,101.0,100.0,101.0,13.4,1505.2,328.1,-0.8,1.8,2471.458,13.29,0.011,79.7
2023-06-24T02:22:03,42.805,6.029,-0.008,0.03,-0.017,99.0,103.0,101.0,13.4,1505.2,351.0,-0.8,1.8,2471.432,13.29,0.031,345.1
2023-06-24T02:25:03,42.805,6.029,-0.009,-0.005,0.018,101.0,102.0,101.0,13.4,1505.2,322.2,-0.8,1.8,2471.484,13.3,0.01,240.9
2023-06-24T02:28:03,42.805,6.029,-0.006,-0.007,-0.031,101.0,103.0,101.0,13.4,1505.2,328.4,-0.8,1.8,2471.443,13.3,0.009,220.6
2023-06-24T02:31:03,42.805,6.029,-0.002,0.02,-0.012,103.0,100.0,101.0,13.4,1505.2,346.2,-0.8,1.8,2471.42,13.3,0.02,354.3
2023-06-24T02:34:03,42.805,6.029,0.025,-0.001,-0.008,103.0,104.0,101.0,13.4,1505.2,321.0,-0.7,1.8,2471.423,13.3,0.025,92.3
2023-06-24T02:37:03,42.805,6.029,0.0,0.006,-0.016,102.0,102.0,101.0,13.3,1505.2,330.8,-0.8,1.8,2471.435,13.3,0.006,0.0
2023-06-24T02:40:03,42.805,6.029,-0.003,0.004,-0.005,102.0,103.0,100.0,13.3,1505.2,334.3,-0.8,1.8,2471.434,13.3,0.005,323.1
2023-06-24T02:43:03,42.805,6.029,0.0,-0.008,-0.02,102.0,101.0,101.0,13.4,1505.2,330.8,-0.8,1.8,2471.441,13.3,0.008,180.0
2023-06-24T02:46:03,42.805,6.029,0.003,-0.005,-0.032,102.0,101.0,101.0,13.4,1505.2,327.2,-0.8,1.8,2471.435,13.3,0.005,149.0
2023-06-24T02:49:03,42.805,6.029,0.006,0.01,0.004,103.0,101.0,101.0,13.4,1505.2,331.9,-0.8,1.8,2471.431,13.3,0.011,31.0
2023-06-24T02:52:03,42.805,6.029,0.001,0.025,0.0,103.0,102.0,100.0,13.4,1505.2,331.6,-0.8,1.8,2471.404,13.3,0.025,2.3
2023-06-24T02:55:03,42.805,6.029,-0.005,-0.008,-0.03,102.0,101.0,101.0,13.4,1505.2,348.4,-0.8,1.8,2471.448,13.3,0.009,212.0
2023-06-24T02:58:03,42.805,6.029,-0.034,0.005,-0.049,101.0,103.0,100.0,13.4,1505.2,330.4,-0.7,1.8,2471.404,13.3,0.034,278.4
2023-06-24T03:04:03,42.805,6.029,-0.006,0.003,-0.023,103.0,101.0,101.0,13.4,1505.2,334.6,-0.8,1.8,2471.477,13.29,0.006,296.6
2023-06-24T03:07:03,42.805,6.029,-0.02,-0.008,-0.02,102.0,102.0,102.0,13.4,1505.2,326.3,-0.8,1.8,2471.442,13.3,0.021,248.2
2023-06-24T03:10:03,42.805,6.029,-0.014,-0.004,-0.045,101.0,101.0,101.0,13.4,1505.2,334.4,-0.8,1.8,2471.423,13.3,0.014,254.1
2023-06-24T03:13:03,42.805,6.029,0.005,0.012,-0.023,102.0,103.0,104.0,13.4,1505.2,342.8,-0.8,1.9,2471.466,13.29,0.013,22.6
2023-06-24T03:16:03,42.805,6.029,0.0,0.02,-0.014,102.0,99.0,101.0,13.4,1505.2,330.6,-0.8,1.8,2471.382,13.3,0.02,0.0
2023-06-24T03:19:03,42.805,6.029,0.01,-0.007,0.017,105.0,102.0,105.0,13.4,1505.2,345.0,-0.8,1.8,2471.42,13.3,0.012,125.0
2023-06-24T03:22:03,42.805,6.029,-0.003,0.014,0.001,100.0,100.0,100.0,13.4,1505.2,325.4,-0.8,1.8,2471.41,13.3,0.014,347.9
2023-06-24T03:25:03,42.805,6.029,-0.003,-0.009,-0.048,101.0,102.0,100.0,13.4,1505.2,349.1,-0.8,1.8,2471.385,13.29,0.009,198.4
2023-06-24T03:28:03,42.805,6.029,-0.001,0.013,-0.041,102.0,101.0,101.0,13.4,1505.2,323.3,-0.8,1.8,2471.423,13.3,0.013,355.6
2023-06-24T03:31:03,42.805,6.029,0.005,0.0,-0.019,100.0,103.0,100.0,13.4,1505.2,328.5,-0.8,1.8,2471.445,13.3,0.005,90.0
2023-06-24T03:34:03,42.805,6.029,-0.005,0.02,0.018,102.0,100.0,100.0,13.4,1505.2,325.7,-0.8,1.8,2471.426,13.3,0.02,346.0
2023-06-24T03:37:03,42.805,6.029,0.015,0.008,-0.047,103.0,102.0,100.0,13.4,1505.2,347.7,-0.8,1.8,2471.436,13.3,0.017,61.9
2023-06-24T03:40:03,42.805,6.029,0.016,0.011,0.018,102.0,100.0,100.0,13.4,1505.2,338.8,-0.8,1.8,2471.389,13.3,0.019,55.5
2023-06-24T03:43:03,42.805,6.029,-0.009,-0.009,-0.02,100.0,101.0,101.0,13.4,1505.2,340.9,-0.7,1.8,2471.419,13.3,0.012,225.0
2023-06-24T03:46:03,42.805,6.029,0.0,0.014,-0.005,98.0,102.0,100.0,13.4,1505.2,351.0,-0.7,1.8,2471.423,13.3,0.014,0.0
2023-06-24T03:49:03,42.805,6.029,0.012,0.004,-0.01,101.0,102.0,100.0,13.4,1505.2,322.3,-0.7,1.8,2471.411,13.3,0.012,71.6
2023-06-24T03:52:03,42.805,6.029,0.005,0.003,0.002,100.0,101.0,100.0,13.3,1505.2,340.8,-0.8,1.8,2471.385,13.3,0.005,59.0
2023-06-24T03:55:03,42.805,6.029,-0.021,0.008,-0.003,102.0,101.0,101.0,13.3,1505.2,322.0,-0.8,1.8,2471.384,13.3,0.022,290.9
2023-06-24T03:58:03,42.805,6.029,0.004,0.0,-0.051,103.0,102.0,99.0,13.4,1505.2,318.9,-0.7,1.9,2471.377,13.3,0.004,90.0
2023-06-24T04:04:03,42.805,6.029,0.002,-0.025,-0.01,113.0,102.0,101.0,13.4,1505.2,323.1,-0.8,1.8,2471.457,13.29,0.025,175.4
2023-06-24T04:07:03,42.805,6.029,-0.032,0.004,-0.058,102.0,101.0,100.0,13.4,1505.2,336.0,-0.7,1.8,2471.441,13.29,0.032,277.1
2023-06-24T04:10:03,42.805,6.029,0.024,-0.002,-0.002,103.0,100.0,103.0,13.4,1505.2,324.0,-0.7,1.8,2471.418,13.29,0.024,94.8
2023-06-24T04:13:03,42.805,6.029,0.011,0.003,0.002,102.0,101.0,101.0,13.4,1505.2,325.7,-0.7,1.8,2471.446,13.29,0.011,74.7
2023-06-24T04:16:03,42.805,6.029,-0.016,0.015,-0.003,107.0,100.0,101.0,13.3,1505.2,333.0,-0.7,1.8,2471.398,13.29,0.021,313.1
2023-06-24T04:19:03,42.805,6.029,0.004,-0.011,-0.044,100.0,102.0,101.0,13.3,1505.2,334.2,-0.8,1.8,2471.416,13.29,0.011,160.0
2023-06-24T04:22:03,42.805,6.029,0.009,0.001,0.019,100.0,102.0,100.0,13.3,1505.2,331.6,-0.8,1.8,2471.39,13.29,0.009,83.7
2023-06-24T04:25:03,42.805,6.029,0.01,0.007,-0.02,101.0,100.0,101.0,13.4,1505.2,333.4,-0.8,1.8,2471.435,13.29,0.012,55.0
2023-06-24T04:28:03,42.805,6.029,-0.026,0.0,-0.059,100.0,101.0,100.0,13.4,1505.2,330.2,-0.8,1.8,2471.406,13.29,0.026,270.0
2023-06-24T04:31:03,42.805,6.029,0.006,0.008,-0.005,102.0,103.0,100.0,13.3,1505.2,346.5,-0.7,1.8,2471.376,13.29,0.01,36.9
2023-06-24T04:34:03,42.805,6.029,0.005,0.005,-0.016,102.0,102.0,99.0,13.4,1505.2,339.3,-0.7,1.8,2471.426,13.29,0.007,45.0
2023-06-24T04:37:03,42.805,6.029,0.004,-0.011,-0.037,102.0,101.0,100.0,13.3,1505.2,349.5,-0.8,1.8,2471.386,13.29,0.011,160.0
2023-06-24T04:40:03,42.805,6.029,0.006,-0.022,-0.035,101.0,101.0,101.0,13.4,1505.2,339.4,-0.7,1.8,2471.392,13.29,0.022,164.7
2023-06-24T04:43:03,42.805,6.029,0.009,-0.019,-0.018,103.0,99.0,100.0,13.3,1505.2,328.8,-0.7,1.9,2471.384,13.29,0.021,154.7
2023-06-24T04:46:03,42.805,6.029,-0.017,0.002,-0.062,102.0,101.0,100.0,13.4,1505.2,349.5,-0.8,1.9,2471.377,13.29,0.017,276.7
2023-06-24T04:49:03,42.805,6.029,0.009,0.012,0.006,103.0,101.0,101.0,13.3,1505.2,341.9,-0.8,1.8,2471.419,13.29,0.015,36.9
2023-06-24T04:52:03,42.805,6.029,0.01,0.005,0.022,101.0,101.0,101.0,13.4,1505.2,342.6,-0.8,1.8,2471.394,13.29,0.011,63.4
2023-06-24T04:55:03,42.805,6.029,-0.01,-0.005,-0.021,102.0,102.0,101.0,13.4,1505.2,335.9,-0.8,1.8,2471.364,13.29,0.011,243.4
2023-06-24T04:58:03,42.805,6.029,0.013,-0.009,-0.022,101.0,101.0,101.0,13.3,1505.2,339.7,-0.8,1.8,2471.415,13.29,0.015,124.7
2023-06-24T05:04:03,42.805,6.029,0.021,0.005,0.001,101.0,101.0,101.0,13.3,1505.2,337.9,-0.8,1.8,2471.437,13.29,0.021,76.6
2023-06-24T05:07:03,42.805,6.029,-0.02,0.009,-0.015,101.0,106.0,102.0,13.4,1505.2,340.4,-0.7,1.7,2471.455,13.29,0.021,294.2
2023-06-24T05:10:03,42.805,6.029,0.004,-0.012,0.018,103.0,99.0,101.0,13.4,1505.2,348.6,-0.8,1.8,2471.408,13.29,0.012,161.6
2023-06-24T05:13:03,42.805,6.029,0.0,-0.001,0.016,100.0,103.0,100.0,13.4,1505.2,342.8,-0.8,1.8,2471.418,13.29,0.001,180.0
2023-06-24T05:16:03,42.805,6.029,-0.011,0.0,-0.058,101.0,101.0,101.0,13.4,1505.2,337.1,-0.7,1.8,2471.396,13.29,0.011,270.0
2023-06-24T05:19:03,42.805,6.029,-0.002,-0.014,-0.019,102.0,105.0,102.0,13.3,1505.2,328.6,-0.8,1.8,2471.447,13.29,0.014,188.1
2023-06-24T05:22:03,42.805,6.029,-0.013,0.0,-0.038,101.0,102.0,100.0,13.4,1505.2,322.7,-0.8,1.8,2471.408,13.29,0.013,270.0
2023-06-24T05:25:03,42.805,6.029,-0.009,0.008,-0.012,102.0,102.0,101.0,13.3,1505.2,338.9,-0.8,1.8,2471.411,13.29,0.012,311.6
2023-06-24T05:28:03,42.805,6.029,-0.001,-0.011,-0.029,101.0,101.0,101.0,13.3,1505.2,329.5,-0.8,1.8,2471.422,13.29,0.011,185.2
2023-06-24T05:31:03,42.805,6.029,0.007,-0.007,-0.006,100.0,102.0,101.0,13.4,1505.2,337.4,-0.8,1.8,2471.385,13.29,0.009,135.0
2023-06-24T05:34:03,42.805,6.029,0.0,0.011,-0.024,101.0,102.0,102.0,13.4,1505.2,328.5,-0.7,1.8,2471.417,13.29,0.011,0.0
2023-06-24T05:37:03,42.805,6.029,0.002,0.011,-0.01,102.0,101.0,100.0,13.4,1505.2,346.8,-0.7,1.8,2471.363,13.29,0.011,10.3
2023-06-24T05:40:03,42.805,6.029,0.007,-0.008,-0.044,103.0,102.0,101.0,13.4,1505.2,336.6,-0.8,1.8,2471.389,13.29,0.01,138.8
2023-06-24T05:43:03,42.805,6.029,-0.012,0.009,-0.047,101.0,102.0,99.0,13.3,1505.2,331.6,-0.8,1.8,2471.413,13.29,0.015,306.9
2023-06-24T05:46:03,42.805,6.029,-0.002,-0.013,-0.051,102.0,101.0,100.0,13.3,1505.2,346.8,-0.8,1.8,2471.332,13.29,0.013,188.7
2023-06-24T05:49:03,42.805,6.029,0.008,-0.01,-0.009,101.0,103.0,102.0,13.4,1505.2,330.8,-0.8,1.8,2471.372,13.29,0.012,141.3
2023-06-24T05:52:03,42.805,6.029,-0.01,-0.002,-0.029,102.0,102.0,100.0,13.4,1505.2,324.3,-0.8,1.8,2471.358,13.29,0.01,258.7
2023-06-24T05:55:03,42.805,6.029,0.015,-0.008,0.008,102.0,101.0,100.0,13.3,1505.2,347.9,-0.7,1.8,2471.372,13.29,0.017,118.1
2023-06-24T05:58:03,42.805,6.029,0.014,0.004,-0.001,102.0,102.0,101.0,13.4,1505.2,323.4,-0.7,1.8,2471.376,13.29,0.014,74.1
2023-06-24T06:01:03,42.805,6.029,0.02,-0.011,0.008,101.0,102.0,101.0,13.4,1505.2,327.6,-0.7,1.8,2471.368,13.29,0.022,118.8
2023-06-24T06:04:03,42.805,6.029,-0.014,-0.008,-0.022,102.0,101.0,100.0,13.4,1505.2,345.1,-0.8,1.8,2471.365,13.29,0.016,240.3
2023-06-24T06:07:03,42.805,6.029,0.01,-0.003,-0.044,100.0,101.0,101.0,13.4,1505.2,335.7,-0.8,1.8,2471.407,13.29,0.01,106.7
2023-06-24T06:10:03,42.805,6.029,0.0,-0.028,-0.044,102.0,101.0,100.0,13.3,1505.2,348.9,-0.8,1.8,2471.375,13.29,0.028,180.0
2023-06-24T06:13:03,42.805,6.029,0.007,0.013,-0.01,101.0,102.0,101.0,13.4,1505.2,318.3,-0.8,1.8,2471.383,13.29,0.014,28.3
2023-06-24T06:16:03,42.805,6.029,-0.019,-0.011,-0.056,101.0,101.0,101.0,13.4,1505.2,347.7,-0.8,1.8,2471.38,13.29,0.021,239.9
2023-06-24T06:19:03,42.805,6.029,-0.016,0.001,-0.003,101.0,103.0,101.0,13.3,1505.2,329.2,-0.7,1.8,2471.369,13.29,0.016,273.6
2023-06-24T06:22:03,42.805,6.029,0.007,-0.009,-0.018,101.0,101.0,101.0,13.3,1505.2,347.7,-0.8,1.8,2471.374,13.29,0.011,142.1
2023-06-24T06:25:03,42.805,6.029,-0.019,-0.013,-0.037,101.0,101.0,101.0,13.4,1505.2,340.5,-0.7,1.8,2471.358,13.29,0.023,235.6
2023-06-24T06:28:03,42.805,6.029,-0.02,-0.036,-0.056,101.0,101.0,101.0,13.4,1505.2,327.9,-0.7,1.8,2471.364,13.29,0.041,209.1
2023-06-24T06:31:03,42.805,6.029,-0.018,0.005,-0.021,100.0,101.0,101.0,13.4,1505.2,344.5,-0.8,1.8,2471.345,13.29,0.018,285.5
2023-06-24T06:34:03,42.805,6.029,0.0,0.026,0.003,101.0,100.0,100.0,13.4,1505.2,344.6,-0.8,1.8,2471.379,13.29,0.026,0.0
2023-06-24T06:37:03,42.805,6.029,0.017,0.001,-0.017,101.0,100.0,102.0,13.4,1505.2,318.2,-0.7,1.8,2471.376,13.29,0.017,86.6
2023-06-24T06:40:03,42.805,6.029,0.006,-0.014,0.002,103.0,100.0,101.0,13.3,1505.2,330.7,-0.8,1.8,2471.379,13.29,0.015,156.8
2023-06-24T06:43:03,42.805,6.029,-0.005,0.004,0.002,101.0,101.0,100.0,13.4,1505.2,327.1,-0.8,1.8,2471.377,13.29,0.006,308.7
2023-06-24T06:46:03,42.805,6.029,0.016,-0.032,-0.038,102.0,102.0,100.0,13.3,1505.2,335.0,-0.7,1.8,2471.387,13.29,0.035,153.4
2023-06-24T06:49:03,42.805,6.029,-0.004,-0.01,-0.03,101.0,101.0,101.0,13.4,1505.2,329.0,-0.7,1.8,2471.373,13.29,0.01,201.8
2023-06-24T06:52:03,42.805,6.029,-0.002,-0.017,-0.038,102.0,102.0,99.0,13.4,1505.2,340.8,-0.8,1.8,2471.39,13.29,0.017,186.7
2023-06-24T06:55:03,42.805,6.029,-0.022,0.008,-0.046,101.0,103.0,102.0,13.4,1505.2,351.2,-0.8,1.8,2471.413,13.29,0.023,290.0
2023-06-24T06:58:03,42.805,6.029,0.004,-0.003,-0.011,101.0,101.0,100.0,13.3,1505.2,339.0,-0.8,1.8,2471.374,13.29,0.005,126.9
2023-06-24T07:04:03,42.805,6.029,-0.005,0.002,-0.022,101.0,101.0,100.0,13.4,1505.2,333.4,-0.8,1.8,2471.456,13.29,0.005,291.8
2023-06-24T07:07:03,42.805,6.029,-0.021,-0.01,-0.069,101.0,101.0,101.0,13.4,1505.2,351.0,-0.8,1.8,2471.403,13.29,0.023,244.5
2023-06-24T07:10:03,42.805,6.029,-0.002,-0.022,-0.055,101.0,102.0,100.0,13.3,1505.2,324.3,-0.8,1.8,2471.428,13.29,0.022,185.2
2023-06-24T07:13:03,42.805,6.029,-0.01,-0.019,-0.057,101.0,101.0,100.0,13.4,1505.2,330.8,-0.8,1.8,2471.409,13.29,0.021,207.8
2023-06-24T07:16:03,42.805,6.029,0.004,-0.006,-0.03,101.0,100.0,100.0,13.4,1505.2,347.4,-0.7,1.8,2471.422,13.29,0.007,146.3
2023-06-24T07:19:03,42.805,6.029,0.005,0.004,-0.008,102.0,99.0,100.0,13.3,1505.2,344.7,-0.8,1.8,2471.389,13.29,0.006,51.3
2023-06-24T07:22:03,42.805,6.029,0.001,0.004,0.004,102.0,101.0,100.0,13.3,1505.2,339.1,-0.7,1.8,2471.392,13.29,0.004,14.0
2023-06-24T07:25:03,42.805,6.029,0.017,-0.009,-0.017,101.0,101.0,101.0,13.3,1505.2,347.9,-0.8,1.8,2471.393,13.29,0.019,117.9
2023-06-24T07:28:03,42.805,6.029,-0.023,-0.029,-0.11,101.0,101.0,100.0,13.3,1505.2,326.0,-0.8,1.8,2471.414,13.29,0.037,218.4
2023-06-24T07:31:03,42.805,6.029,-0.035,-0.005,-0.023,101.0,100.0,100.0,13.3,1505.2,326.8,-0.8,1.8,2471.404,13.29,0.035,261.9
2023-06-24T07:34:03,42.805,6.029,-0.003,-0.023,-0.025,101.0,101.0,100.0,13.4,1505.2,330.1,-0.8,1.8,2471.397,13.29,0.023,187.4
2023-06-24T07:37:03,42.805,6.029,0.012,-0.007,0.01,101.0,101.0,101.0,13.4,1505.2,349.5,-0.8,1.8,2471.351,13.29,0.013,120.3
2023-06-24T07:40:03,42.805,6.029,-0.001,0.003,-0.002,102.0,100.0,101.0,13.3,1505.2,322.4,-0.7,1.8,2471.415,13.29,0.003,341.6
2023-06-24T07:43:03,42.805,6.029,-0.001,0.008,-0.027,101.0,100.0,101.0,13.3,1505.2,349.1,-0.8,1.8,2471.399,13.29,0.008,352.9
2023-06-24T07:46:03,42.805,6.029,-0.01,-0.001,-0.002,101.0,102.0,100.0,13.3,1505.2,319.4,-0.8,1.8,2471.418,13.29,0.01,264.3
2023-06-24T07:49:03,42.805,6.029,-0.004,0.007,-0.032,101.0,100.0,101.0,13.4,1505.2,336.9,-0.8,1.8,2471.411,13.29,0.008,330.3
2023-06-24T07:52:03,42.805,6.029,-0.013,0.004,-0.035,102.0,101.0,101.0,13.4,1505.2,344.4,-0.8,1.8,2471.38,13.29,0.013,287.1
2023-06-24T07:55:03,42.805,6.029,-0.017,0.027,0.026,100.0,101.0,101.0,13.4,1505.2,324.5,-0.8,1.8,2471.407,13.29,0.031,327.8
2023-06-24T07:58:03,42.805,6.029,-0.007,-0.005,-0.03,102.0,100.0,101.0,13.3,1505.2,328.8,-0.7,1.8,2471.375,13.29,0.008,234.5
2023-06-24T08:04:03,42.805,6.029,-0.033,0.013,-0.023,102.0,101.0,101.0,13.4,1505.2,341.5,-0.8,1.8,2471.433,13.29,0.035,291.5
2023-06-24T08:07:03,42.805,6.029,-0.018,-0.005,0.007,102.0,101.0,101.0,13.4,1505.2,339.0,-0.8,1.8,2471.429,13.29,0.018,254.5
2023-06-24T08:10:03,42.805,6.029,-0.02,0.017,0.0,100.0,103.0,101.0,13.4,1505.2,332.1,-0.7,1.8,2471.455,13.29,0.026,310.4
2023-06-24T08:13:03,42.805,6.029,-0.033,-0.007,-0.043,102.0,101.0,101.0,13.3,1505.2,327.6,-0.7,1.8,2471.409,13.29,0.033,258.0
2023-06-24T08:16:03,42.805,6.029,0.013,0.007,-0.011,102.0,101.0,101.0,13.4,1505.2,346.7,-0.8,1.8,2471.413,13.29,0.014,61.7
2023-06-24T08:19:03,42.805,6.029,-0.017,0.004,-0.023,103.0,101.0,101.0,13.4,1505.2,341.2,-0.8,1.8,2471.399,13.29,0.017,283.2
2023-06-24T08:22:03,42.805,6.029,-0.023,-0.008,-0.017,101.0,103.0,101.0,13.4,1505.2,335.1,-0.8,1.8,2471.396,13.29,0.024,250.8
2023-06-24T08:25:03,42.805,6.029,-0.028,-0.005,-0.03,102.0,102.0,102.0,13.4,1505.2,345.0,-0.8,1.8,2471.412,13.29,0.028,259.9
2023-06-24T08:28:03,42.805,6.029,0.013,-0.001,-0.019,101.0,101.0,101.0,13.3,1505.2,328.8,-0.8,1.8,2471.406,13.29,0.013,94.4
2023-06-24T08:31:03,42.805,6.029,0.013,-0.005,-0.025,103.0,102.0,100.0,13.3,1505.2,343.3,-0.7,1.8,2471.42,13.29,0.013,111.0
2023-06-24T08:34:03,42.805,6.029,-0.003,-0.021,-0.018,102.0,102.0,100.0,13.4,1505.2,343.1,-0.7,1.8,2471.417,13.29,0.021,188.1
2023-06-24T08:37:03,42.805,6.029,0.0,-0.021,-0.051,101.0,101.0,100.0,13.4,1505.2,341.5,-0.8,1.8,2471.43,13.29,0.021,180.0
2023-06-24T08:40:03,42.805,6.029,-0.012,0.007,-0.053,101.0,102.0,101.0,13.3,1505.2,330.6,-0.7,1.8,2471.384,13.29,0.013,300.3
2023-06-24T08:43:03,42.805,6.029,-0.001,-0.013,-0.011,103.0,102.0,100.0,13.4,1505.2,336.4,-0.8,1.8,2471.402,13.29,0.013,184.4
2023-06-24T08:46:03,42.805,6.029,-0.007,-0.008,-0.031,100.0,101.0,101.0,13.4,1505.2,332.1,-0.8,1.8,2471.418,13.29,0.01,221.2
2023-06-24T08:49:03,42.805,6.029,-0.011,-0.018,0.003,101.0,101.0,101.0,13.4,1505.2,346.7,-0.8,1.8,2471.415,13.29,0.021,211.4
2023-06-24T08:52:03,42.805,6.029,-0.001,-0.021,-0.009,102.0,102.0,100.0,13.3,1505.2,326.8,-0.8,1.8,2471.404,13.29,0.021,182.7
2023-06-24T08:55:03,42.805,6.029,-0.007,0.006,-0.025,100.0,101.0,102.0,13.3,1505.2,349.7,-0.7,1.8,2471.399,13.29,0.009,310.6
2023-06-24T08:58:03,42.805,6.029,-0.001,0.001,0.016,101.0,102.0,101.0,13.3,1505.2,319.6,-0.8,1.8,2471.435,13.29,0.001,315.0
2023-06-24T09:04:03,42.805,6.029,-0.009,0.0,0.0,102.0,103.0,101.0,13.4,1505.2,329.7,-0.8,1.8,2471.448,13.29,0.009,270.0
2023-06-24T09:07:03,42.805,6.029,-0.017,-0.006,-0.041,102.0,101.0,101.0,13.4,1505.2,341.9,-0.8,1.8,2471.439,13.29,0.018,250.6
2023-06-24T09:10:03,42.805,6.029,0.005,0.025,0.004,102.0,101.0,101.0,13.3,1505.2,324.5,-0.8,1.8,2471.468,13.29,0.025,11.3
2023-06-24T09:13:03,42.805,6.029,0.006,-0.016,-0.033,102.0,102.0,102.0,13.4,1505.2,333.4,-0.8,1.8,2471.474,13.29,0.017,159.4
2023-06-24T09:16:03,42.805,6.029,0.009,-0.012,-0.021,101.0,102.0,101.0,13.4,1505.2,341.5,-0.8,1.8,2471.45,13.29,0.015,143.1
2023-06-24T09:19:03,42.805,6.029,-0.006,0.002,-0.012,101.0,102.0,101.0,13.3,1505.2,330.8,-0.8,1.8,2471.42,13.29,0.006,288.4
2023-06-24T09:22:03,42.805,6.029,-0.009,-0.022,-0.026,102.0,102.0,100.0,13.3,1505.2,351.0,-0.7,1.8,2471.424,13.29,0.023,202.2
2023-06-24T09:25:03,42.805,6.029,-0.016,-0.02,-0.051,100.0,101.0,101.0,13.4,1505.2,332.9,-0.8,1.8,2471.439,13.29,0.025,218.7
2023-06-24T09:28:03,42.805,6.029,-0.029,0.006,-0.005,102.0,101.0,101.0,13.4,1505.2,322.7,-0.8,1.8,2471.423,13.29,0.029,281.7
2023-06-24T09:31:03,42.805,6.029,-0.012,-0.009,-0.046,102.0,101.0,101.0,13.3,1505.2,327.3,-0.8,1.8,2471.438,13.29,0.015,233.1
2023-06-24T09:34:03,42.805,6.029,-0.008,0.009,-0.013,102.0,102.0,101.0,13.4,1505.2,333.4,-0.8,1.8,2471.409,13.29,0.012,318.4
2023-06-24T09:37:03,42.805,6.029,-0.005,0.003,0.009,101.0,101.0,103.0,13.4,1505.2,318.9,-0.8,1.9,2471.435,13.29,0.005,301.0
2023-06-24T09:40:03,42.805,6.029,0.006,-0.006,-0.021,102.0,101.0,100.0,13.4,1505.2,336.9,-0.8,1.9,2471.383,13.29,0.008,135.0
2023-06-24T09:43:03,42.805,6.029,-0.025,-0.009,-0.044,103.0,101.0,101.0,13.3,1505.2,326.8,-0.7,1.8,2471.407,13.29,0.026,250.2
2023-06-24T09:46:03,42.805,6.029,-0.01,0.003,-0.008,102.0,101.0,100.0,13.4,1505.2,329.0,-0.8,1.8,2471.405,13.29,0.01,286.7
2023-06-24T09:49:03,42.805,6.029,-0.022,0.008,-0.006,103.0,101.0,101.0,13.4,1505.2,323.3,-0.8,1.8,2471.382,13.29,0.023,290.0
2023-06-24T09:52:03,42.805,6.029,-0.005,0.0,-0.004,102.0,101.0,101.0,13.3,1505.2,334.2,-0.8,1.8,2471.414,13.29,0.005,270.0
2023-06-24T09:55:03,42.805,6.029,-0.001,-0.024,-0.044,102.0,101.0,100.0,13.3,1505.2,333.8,-0.8,1.8,2471.431,13.29,0.024,182.4